Location: Unspecified
(0.0000°N, 0.0000°E)
Time: 20:51:27
(UTC+02:00)

ARIANE 5 R/B - Visible Passes

Search period start: 02 September 2014 00:00
Search period end: 12 September 2014 00:00
Orbit: 568 x 35654 km, 7.0° (Epoch: 31 August)

Date Brightness Start Highest point End Pass type
(mag) Time Alt. Az. Time Alt. Az. Time Alt. Az.
02 Sep 7.7 00:50:03 10° W 06:02:15 87° S 10:51:48 10° ENE visible
02 Sep 5.9 21:52:27 10° W 21:59:39 76° S 07:46:33 10° E visible
04 Sep 11.3 02:29:29 10° E 03:03:13 11° E 03:31:13 10° E visible
04 Sep 10.2 07:01:30 15° W 08:00:37 20° W 10:17:17 10° W visible
05 Sep 7.3 04:13:45 63° WSW 12:59:34 70° N 13:08:56 10° ENE visible
06 Sep 7.6 00:09:06 10° W 06:26:38 88° S 10:10:37 10° E visible
06 Sep 5.5 21:12:02 10° W 21:18:00 75° S 07:02:24 10° E visible
08 Sep 10.2 06:26:51 24° W 07:20:27 28° W 10:41:05 10° W visible
09 Sep 7.7 02:29:28 10° W 04:23:16 76° WSW 12:28:24 10° ENE visible
09 Sep 7.7 23:28:17 10° W 07:07:14 89° NNE 09:29:09 10° E visible
10 Sep 5.1 20:31:38 10° W 20:36:39 75° S 06:16:52 10° E visible
